Location: Unspecified
(0.0000°N, 0.0000°E)
Time: 01:19:34
(UTC+02:00)

Cosmos 1295 Rocket - Visible Passes

Search period start: 21 October 2017 00:00
Search period end: 30 October 2017 23:00
Orbit: 944 x 994 km, 82.9° (Epoch: 20 October)

Date Brightness Start Highest point End Pass type
(mag) Time Alt. Az. Time Alt. Az. Time Alt. Az.
21 Oct 5.2 06:21:12 10° N 06:27:21 55° E 06:33:31 10° SSE visible
22 Oct 4.5 06:44:25 10° N 06:50:43 73° W 06:57:02 10° S visible
23 Oct 6.9 05:24:57 10° NE 05:29:10 19° E 05:33:23 10° SE visible
23 Oct 5.1 07:08:26 10° NNW 07:14:05 35° W 07:19:46 10° SSW visible
24 Oct 5.8 05:46:43 10° NNE 05:52:32 39° E 05:58:21 10° SSE visible
25 Oct 4.6 06:09:34 10° N 06:15:54 81° E 06:22:14 10° S visible
26 Oct 7.2 04:51:47 10° ENE 04:54:21 13° E 04:56:55 10° ESE visible
26 Oct 4.7 06:33:13 10° NNW 06:39:16 49° W 06:45:21 10° SSW visible
27 Oct 6.3 05:12:28 10° NNE 05:17:44 28° E 05:22:59 10° SE visible
27 Oct 5.5 06:57:46 10° NW 07:02:39 24° W 07:07:32 10° SW visible
28 Oct 5.0 05:36:31 19° NNE 05:41:06 58° E 05:47:17 10° SSE visible
29 Oct 4.4 05:01:40 35° NNW 05:04:28 69° W 05:10:44 10° S visible
30 Oct 6.6 03:41:49 19° ENE 03:42:55 20° E 03:47:16 10° SE visible
30 Oct 5.1 05:26:26 30° WNW 05:27:50 33° W 05:33:24 10° SSW visible
